[[{"header":{"parameterUnit":"m.s-1","parameterCategory":1,"la1":30.2991,"la2":30.254,"lo1":-89.0895,"lo2":-89.0444,"dy":0.0017,"dx":0.0017,"nx":28,"ny":28,"refTime":"2023-08-31T21:00:00:Z","depth":0,"parameterNumber":2,"parameterNumberName":"U-component_of_WINDS"},"data":[0,0,0,0,0,0,0,0,0,0,0,0,0,0,0,0,0,0,0,0,0,0,0,0,0,0,0,0,0,0,0,0,0,0,0,0,0,0,0,0,0,0,0,0,0,0,0,0,0,0,0,0,0,0,0,0,0,0,-1.2265,-1.2265,0,-1.2249,-1.2249,-1.2248,-1.2201,-1.22,-1.2199,-1.2198,-1.2183,-1.2184,-1.2184,0,0,0,0,0,0,0,0,0,0,0,0,0,-1.2257,-1.2257,-1.2265,-1.2265,-1.2265,-1.2249,-1.2249,-1.2248,-1.2201,-1.22,-1.2199,-1.2197,-1.2183,-1.2184,-1.2184,0,0,0,0,0,0,0,0,0,0,0,0,0,-1.2253,-1.2257,-1.2265,-1.2239,-1.2237,-1.2249,-1.2249,-1.2248,-1.2201,-1.22,-1.2198,-1.2197,-1.2183,-1.2183,-1.2184,-1.2221,0,0,-1.2187,-1.2187,0,0,0,0,0,0,0,0,-1.2253,-1.2253,-1.2243,-1.2241,-1.2238,-1.2225,-1.224,-1.2239,-1.2202,-1.2215,-1.2198,-1.2196,-1.2198,-1.2198,-1.2198,-1.222,-1.222,-1.2187,-1.2188,-1.2188,-1.2188,0,0,0,0,0,0,0,-1.2253,-1.2253,-1.2259,-1.2243,-1.224,-1.2229,-1.2226,-1.224,-1.2216,-1.2214,-1.221,-1.2209,-1.2197,-1.2198,-1.2198,-1.2219,-1.2187,-1.2188,-1.2188,-1.2189,-1.2271,-1.2272,0,0,0,0,0,0,-1.2257,-1.2254,-1.2259,-1.2258,-1.2242,-1.223,-1.2228,-1.2231,-1.2215,-1.2212,-1.221,-1.2207,-1.2197,-1.2197,-1.2197,-1.224,-1.2188,-1.2189,-1.2189,-1.2269,-1.2271,-1.2273,0,0,0,0,0,0,-1.2257,-1.2258,-1.226,-1.2255,-1.2254,-1.2232,-1.2236,-1.2232,-1.2232,-1.2213,-1.2208,-1.2215,-1.2196,-1.2196,-1.2215,-1.2238,-1.2189,-1.219,-1.2267,-1.227,-1.2272,-1.2325,0,0,0,0,0,0,-1.2257,-1.2258,-1.2272,-1.2256,-1.2255,-1.2278,-1.2238,-1.2232,-1.2234,-1.2229,-1.2216,-1.2213,-1.2194,-1.2214,-1.2216,-1.2239,-1.2191,-1.2265,-1.2268,-1.2271,-1.2321,-1.2329,-1.2335,0,0,0,0,0,-1.2257,-1.2288,-1.2273,-1.2274,-1.2271,-1.228,-1.2279,-1.2257,-1.2236,-1.2249,-1.2237,-1.2213,-1.2235,-1.2217,-1.2218,-1.2242,-1.2264,-1.2267,-1.2271,-1.2318,-1.2327,-1.2335,0,0,0,0,0,0,-1.2308,-1.2285,-1.2268,-1.2295,-1.2289,-1.2272,-1.2288,-1.2268,-1.2269,-1.2265,-1.2237,-1.2235,-1.2259,-1.2252,-1.2231,-1.2276,-1.2245,-1.225,-1.228,-1.2289,-1.2296,-1.2298,-1.2191,0,0,0,0,0,-1.2322,-1.233,-1.231,-1.2335,-1.2333,-1.2311,-1.2314,-1.2297,-1.2291,-1.2289,-1.2278,-1.2273,-1.2279,-1.2283,-1.2287,-1.2319,-1.2316,-1.2336,-1.2343,-1.2349,-1.2354,-1.2371,-1.2379,-1.2285,-1.2285,-1.2285,0,0,-1.2352,-1.234,-1.2347,-1.2345,-1.2339,-1.2349,-1.231,-1.2322,-1.2329,-1.2291,-1.2309,-1.23,-1.2293,-1.2319,-1.233,-1.2314,-1.2379,-1.2354,-1.2359,-1.236,-1.2375,-1.2384,-1.2392,-1.2288,-1.2287,-1.2287,0,0,-1.2411,-1.2403,-1.2423,-1.2417,-1.2408,-1.2393,-1.2398,-1.2384,-1.2376,-1.2394,-1.2365,-1.2373,-1.2384,-1.238,-1.238,-1.2436,-1.2415,-1.2438,-1.2477,-1.2494,-1.2502,-1.2508,-1.253,-1.2537,-1.2443,-1.2443,-1.2443,0,-1.2449,-1.2463,-1.2436,-1.245,-1.245,-1.2415,-1.2436,-1.2432,-1.2425,-1.2426,-1.2408,-1.242,-1.2413,-1.2438,-1.2452,-1.2452,-1.2458,-1.2441,-1.2502,-1.2509,-1.2514,-1.2535,-1.2543,-1.2446,-1.2445,-1.2445,-1.2445,0,-1.2511,-1.252,-1.2538,-1.2532,-1.2533,-1.2551,-1.2528,-1.2533,-1.2515,-1.2502,-1.252,-1.251,-1.2512,-1.2516,-1.2499,-1.2539,-1.2529,-1.2507,-1.2476,-1.2527,-1.2545,-1.2553,-1.245,-1.2449,-1.2448,-1.2447,0,0,-1.2604,-1.2582,-1.2589,-1.2586,-1.2572,-1.258,-1.2595,-1.2596,-1.2602,-1.2598,-1.2611,-1.262,-1.2599,-1.2599,-1.2581,-1.2595,-1.2642,-1.2571,-1.2571,-1.2586,-1.2687,-1.2705,-1.2714,-1.2627,-1.2629,-1.263,-1.2688,0,-1.2661,-1.2686,-1.2663,-1.2693,-1.2702,-1.2668,-1.2681,-1.2675,-1.2663,-1.2669,-1.2656,-1.2663,-1.2635,-1.2634,-1.2647,-1.2634,-1.2663,-1.2629,-1.2641,-1.2642,-1.2646,-1.2724,-1.2743,-1.2798,-1.2695,-1.2696,-1.2697,0,-1.2732,-1.2731,-1.2762,-1.2747,-1.2749,-1.2762,-1.2761,-1.2767,-1.2759,-1.2749,-1.2748,-1.2726,-1.2741,-1.2709,-1.273,-1.2708,-1.271,-1.2705,-1.2706,-1.2708,-1.2674,-1.2729,-1.2815,-1.2824,-1.2708,-1.2707,-1.2706,0,-1.2799,-1.2805,-1.2824,-1.2822,-1.2804,-1.2814,-1.2807,-1.2798,-1.28,-1.2799,-1.28,-1.2801,-1.2802,-1.2803,-1.2782,-1.2761,-1.2806,-1.2772,-1.2799,-1.28,-1.2812,-1.2812,-1.2901,-1.2811,-1.2811,-1.2811,-1.2811,0,-1.2867,-1.2887,-1.2854,-1.2866,-1.2888,-1.286,-1.2883,-1.2873,-1.2865,-1.2875,-1.2844,-1.2855,-1.2825,-1.2832,-1.2816,-1.2836,-1.2836,-1.283,-1.2826,-1.2834,-1.2835,-1.2837,-1.2833,-1.2813,-1.2813,-1.2812,-1.2812,0,-1.2946,-1.2924,-1.2943,-1.2924,-1.292,-1.2937,-1.2921,-1.2932,-1.2917,-1.293,-1.2932,-1.2909,-1.2916,-1.2895,-1.2898,-1.2887,-1.2917,-1.2905,-1.292,-1.2917,-1.2946,-1.2945,-1.3041,-1.3053,-1.2954,-1.2955,-1.2956,0,-1.2992,-1.3007,-1.2989,-1.2993,-1.2988,-1.2995,-1.2996,-1.2969,-1.2972,-1.2964,-1.2976,-1.298,-1.2982,-1.2995,-1.2979,-1.2982,-1.2971,-1.3005,-1.2972,-1.298,-1.2974,-1.2974,-1.2976,-1.3013,-1.3014,-1.3015,-1.3016,0,-1.3076,-1.3064,-1.3067,-1.3066,-1.3069,-1.3067,-1.3064,-1.3069,-1.304,-1.3045,-1.3051,-1.3052,-1.3055,-1.306,-1.3059,-1.3053,-1.303,-1.3026,-1.3033,-1.3042,-1.3051,-1.3048,-1.2941,-1.3024,-1.3024,-1.3023,-1.3023,-1.3022,-1.3141,-1.3153,-1.3142,-1.3147,-1.3141,-1.3138,-1.3147,-1.3133,-1.3137,-1.3138,-1.3121,-1.3131,-1.3122,-1.3118,-1.3114,-1.3122,-1.3106,-1.3116,-1.3118,-1.3122,-1.3127,-1.3048,-1.3121,-1.3121,-1.3121,-1.312,-1.312,0,-1.3225,-1.3216,-1.322,-1.3216,-1.3219,-1.3195,-1.319,-1.3195,-1.3204,-1.3197,-1.3199,-1.3207,-1.3211,-1.3195,-1.3197,-1.3207,-1.3196,-1.3208,-1.3209,-1.3208,-1.314,-1.3135,-1.3217,-1.3217,-1.3217,-1.3217,-1.3217,-1.3217,-1.3269,-1.3288,-1.3275,-1.3291,-1.3282,-1.3291,-1.329,-1.3287,-1.3282,-1.3291,-1.3294,-1.3283,-1.3273,-1.3274,-1.3277,-1.3272,-1.3276,-1.3292,-1.3284,-1.3222,-1.3212,-1.3203,-1.3198,-1.3292,-1.3292,-1.335,-1.3351,-1.3351]},{"header":{"parameterUnit":"m.s-1","parameterCategory":1,"la1":30.2991,"la2":30.254,"lo1":-89.0895,"lo2":-89.0444,"dy":0.0017,"dx":0.0017,"nx":28,"ny":28,"refTime":"2023-08-31T21:00:00:Z","depth":0,"parameterNumber":3,"parameterNumberName":"V-component_of_WINDS"},"data":[0,0,0,0,0,0,0,0,0,0,0,0,0,0,0,0,0,0,0,0,0,0,0,0,0,0,0,0,0,0,0,0,0,0,0,0,0,0,0,0,0,0,0,0,0,0,0,0,0,0,0,0,0,0,0,0,0,0,-3.5889,-3.5889,0,-3.5912,-3.5912,-3.5913,-3.587,-3.5869,-3.5867,-3.5866,-3.5887,-3.5889,-3.589,0,0,0,0,0,0,0,0,0,0,0,0,0,-3.5804,-3.5806,-3.5889,-3.5889,-3.5889,-3.5912,-3.5912,-3.5913,-3.587,-3.5869,-3.5867,-3.5865,-3.5886,-3.5888,-3.5891,0,0,0,0,0,0,0,0,0,0,0,0,0,-3.5835,-3.5806,-3.5888,-3.5871,-3.587,-3.5912,-3.5912,-3.5913,-3.5871,-3.5869,-3.5867,-3.5865,-3.5885,-3.5888,-3.5891,-3.595,0,0,-3.5899,-3.5901,0,0,0,0,0,0,0,0,-3.5834,-3.5838,-3.5873,-3.5872,-3.5871,-3.5886,-3.589,-3.5925,-3.5871,-3.587,-3.5866,-3.5864,-3.5888,-3.589,-3.5899,-3.5951,-3.5952,-3.59,-3.5901,-3.5903,-3.5903,0,0,0,0,0,0,0,-3.5831,-3.5837,-3.5898,-3.5874,-3.5872,-3.5861,-3.5863,-3.5896,-3.5891,-3.587,-3.5867,-3.5871,-3.5887,-3.5897,-3.59,-3.5953,-3.59,-3.5902,-3.5904,-3.5905,-3.6055,-3.6057,0,0,0,0,0,0,-3.5832,-3.5836,-3.5897,-3.5898,-3.5847,-3.5864,-3.5866,-3.5883,-3.589,-3.5889,-3.5872,-3.5869,-3.5893,-3.5896,-3.59,-3.5971,-3.5903,-3.5905,-3.5907,-3.6053,-3.6055,-3.6058,0,0,0,0,0,0,-3.583,-3.5838,-3.5896,-3.5866,-3.5873,-3.5868,-3.5887,-3.5885,-3.5895,-3.5892,-3.589,-3.5884,-3.5892,-3.5896,-3.5939,-3.5971,-3.5906,-3.5909,-3.605,-3.6054,-3.6057,-3.6113,0,0,0,0,0,0,-3.5828,-3.5838,-3.5861,-3.5867,-3.5875,-3.5935,-3.5889,-3.5887,-3.59,-3.5895,-3.5902,-3.5901,-3.589,-3.5935,-3.5941,-3.5974,-3.5911,-3.6047,-3.6052,-3.6056,-3.6108,-3.6118,-3.6126,0,0,0,0,0,-3.5825,-3.5875,-3.5862,-3.587,-3.5904,-3.5937,-3.5941,-3.5928,-3.5903,-3.5926,-3.5924,-3.5901,-3.5966,-3.5939,-3.5947,-3.598,-3.6045,-3.605,-3.6055,-3.6104,-3.6116,-3.6126,0,0,0,0,0,0,-3.5871,-3.5875,-3.5861,-3.5915,-3.5926,-3.593,-3.5958,-3.5941,-3.5959,-3.5954,-3.5936,-3.5938,-3.5984,-3.5986,-3.5956,-3.6038,-3.6001,-3.6008,-3.6036,-3.6047,-3.6056,-3.6054,-3.5914,0,0,0,0,0,-3.5887,-3.5915,-3.5917,-3.5964,-3.597,-3.5964,-3.5977,-3.5967,-3.5977,-3.5982,-3.5983,-3.5993,-3.6016,-3.6031,-3.6052,-3.6108,-3.6109,-3.6134,-3.6143,-3.6151,-3.6157,-3.6187,-3.6199,-3.6075,-3.6075,-3.6075,0,0,-3.5921,-3.5927,-3.5945,-3.5973,-3.5981,-3.6009,-3.5968,-3.5999,-3.602,-3.5986,-3.6027,-3.6028,-3.6038,-3.6088,-3.611,-3.6091,-3.6191,-3.6157,-3.6163,-3.6166,-3.6194,-3.6205,-3.6216,-3.6079,-3.6078,-3.6077,0,0,-3.5998,-3.6005,-3.6045,-3.6054,-3.6066,-3.6062,-3.6071,-3.6078,-3.6078,-3.6119,-3.6094,-3.6118,-3.6158,-3.6166,-3.6176,-3.6256,-3.6236,-3.6263,-3.631,-3.634,-3.635,-3.6358,-3.6388,-3.6398,-3.6269,-3.627,-3.627,0,-3.6038,-3.6081,-3.6067,-3.6102,-3.6114,-3.6086,-3.6126,-3.6135,-3.6153,-3.6162,-3.6141,-3.6191,-3.6196,-3.6247,-3.6267,-3.6275,-3.6286,-3.6263,-3.635,-3.6358,-3.6366,-3.6394,-3.6405,-3.6273,-3.6272,-3.6272,-3.6272,0,-3.613,-3.616,-3.6191,-3.6211,-3.6227,-3.6264,-3.6255,-3.6273,-3.6261,-3.6259,-3.63,-3.6305,-3.6327,-3.6338,-3.6326,-3.6388,-3.6376,-3.6353,-3.6315,-3.6381,-3.6407,-3.6417,-3.6278,-3.6276,-3.6275,-3.6275,0,0,-3.6236,-3.6249,-3.6261,-3.627,-3.6282,-3.6304,-3.6339,-3.6362,-3.6378,-3.6391,-3.642,-3.6454,-3.6433,-3.6444,-3.6433,-3.6458,-3.6523,-3.6432,-3.6432,-3.6449,-3.6592,-3.661,-3.6623,-3.6509,-3.6511,-3.6513,-3.6591,0,-3.6313,-3.6375,-3.6365,-3.6425,-3.6453,-3.6426,-3.6457,-3.6467,-3.6466,-3.6488,-3.6486,-3.6511,-3.6481,-3.6487,-3.6512,-3.651,-3.6551,-3.6504,-3.6536,-3.6537,-3.6535,-3.6636,-3.6655,-3.6729,-3.6601,-3.6603,-3.6604,0,-3.6411,-3.643,-3.6493,-3.6502,-3.6513,-3.6541,-3.6561,-3.6583,-3.6594,-3.6591,-3.6604,-3.6587,-3.6622,-3.6584,-3.6631,-3.6599,-3.6611,-3.6612,-3.6615,-3.6617,-3.6575,-3.6642,-3.6752,-3.6764,-3.662,-3.6618,-3.6617,0,-3.6482,-3.6524,-3.6567,-3.6576,-3.6586,-3.6607,-3.6612,-3.6621,-3.6635,-3.6652,-3.6661,-3.6681,-3.6693,-3.6708,-3.6698,-3.6671,-3.6747,-3.6708,-3.6745,-3.6746,-3.6763,-3.6762,-3.6877,-3.677,-3.677,-3.6769,-3.6769,0,-3.657,-3.661,-3.66,-3.6627,-3.6671,-3.6658,-3.6701,-3.6703,-3.6711,-3.6737,-3.6715,-3.674,-3.6724,-3.6747,-3.6739,-3.678,-3.6785,-3.6783,-3.678,-3.6785,-3.6786,-3.6794,-3.6788,-3.6772,-3.6772,-3.6771,-3.6771,0,-3.6658,-3.6653,-3.6699,-3.6706,-3.6708,-3.674,-3.6746,-3.677,-3.6767,-3.6801,-3.6808,-3.6803,-3.6829,-3.682,-3.6848,-3.6842,-3.6894,-3.6884,-3.6891,-3.6889,-3.6927,-3.6924,-3.7052,-3.7068,-3.695,-3.6951,-3.6952,0,-3.6714,-3.6745,-3.6755,-3.6772,-3.6779,-3.6806,-3.6821,-3.6809,-3.6825,-3.684,-3.6863,-3.6888,-3.6907,-3.695,-3.6949,-3.697,-3.6961,-3.7004,-3.6964,-3.6968,-3.6962,-3.6961,-3.6964,-3.7012,-3.7014,-3.7015,-3.7016,0,-3.6815,-3.6811,-3.6835,-3.6858,-3.6877,-3.6893,-3.6908,-3.6923,-3.6911,-3.693,-3.6958,-3.6973,-3.7002,-3.7027,-3.7046,-3.705,-3.7031,-3.7029,-3.7038,-3.7044,-3.7047,-3.7047,-3.6914,-3.7026,-3.7025,-3.7024,-3.7023,-3.7023,-3.6889,-3.6916,-3.6928,-3.6954,-3.6965,-3.6979,-3.7003,-3.7004,-3.7027,-3.7051,-3.7041,-3.7073,-3.7083,-3.7107,-3.7114,-3.7138,-3.7121,-3.7135,-3.7139,-3.7143,-3.7148,-3.7043,-3.7141,-3.7141,-3.7141,-3.714,-3.714,0,-3.699,-3.6996,-3.7021,-3.7044,-3.7065,-3.7046,-3.7061,-3.708,-3.7109,-3.712,-3.714,-3.7172,-3.7196,-3.7196,-3.7218,-3.7237,-3.7229,-3.7244,-3.7242,-3.7244,-3.7162,-3.7151,-3.725,-3.725,-3.725,-3.725,-3.725,-3.725,-3.7044,-3.7088,-3.7086,-3.7135,-3.714,-3.7173,-3.7183,-3.7196,-3.7205,-3.7242,-3.7263,-3.7263,-3.727,-3.7293,-3.7314,-3.7313,-3.7323,-3.7341,-3.7337,-3.726,-3.7249,-3.7239,-3.7229,-3.7343,-3.7343,-3.7417,-3.7418,-3.7418]}]]